STARLINK-32402, 61708

Orbit data source: Space-Track

STARLINK-32402, 61708 is a payload satellite owned by SpaceX/Seattle (US) in LEO that was launched on Wed, 30 Oct 2024 UTC via an FALCON 9 launch vehicle from the Air Force Eastern Test Range (AFETR). Payload-class satellites include a variety of spacecraft equipped with specific instruments for various scientific and technological missions. These include communications satellites like Starlink; space stations such as the ISS; scientific satellites like the Hubble; Earth observation satellites from companies like Planet Labs, Umbra, and HawkEye 360; GPS; miniature CubeSats for education and research; and military/defense satellites.

Loading next visibility...
Identifier
61708, 2024-196B
Orbit
LEO
Last TLE update
1 day ago
Origin
Manufacturer
SpaceX/Seattle
Mission
Operational Commercial Communications
Bus & Motor
STARLINK V2M, Unknown motor
Mass
730 kg wet, ~700 kg dry
Launch date (UTC)
2024-10-30 (8 months ago)
Launch vehicle
FALCON 9
Launch site
Air Force Eastern Test Range (AFETR)
Object type
Payload
Rocket body
Debris
Shape & HBR
Box + 2 Pan, 29 m
Radar Cross Section
36.964 m², Large (>1 m²)

Expand to show TLE details & history

TLE from 1 day ago
0 STARLINK-32402
1 61708U 24196B   25189.32608839  .00000740  00000-0  37106-4 0  9990
2 61708  53.1597 156.3692 0001212  79.2271 280.8866 15.30195507 39747
Epoch: 2025-07-08T07:49Z
TLE epoch observation values (Epoch: 2025-07-08T07:49:34.036Z)
Latitude
-0.00005°
Longitude
112.45466°
Altitude
475.971 km
Speed
7.629 km/s
True Right ascension
10h 25m 28s
True Declination
0° 00' 00"
Sunlit
Object was in daylight at epoch
Visualization orbit readout
Latitude
-21.97481°
Longitude
-54.7762°
Altitude
481.915 km
Speed
7.624 km/s
Apparent Right ascension
02h 37m 24s
Apparent Declination
-56° 40' 25"
Sunlit
Object is in full shadow
Visualization observer readout
Local Sidereal Time
20:24:12
Azimuth
138.528° SSE
Elevation
-34.084°
Doppler factor
1
Orbital elements
Apogee altitude
476.316 km
Perigee altitude
474.654 km
Semi-major axis
6,853.622 km
Eccentricity
0.00012
Inclination
53.1597°
RAAN
156.3692°
Arg. of periapsis
79.2271°
True anomaly
Unknown
Mean anomaly
280.8866°
Eccentric anomaly
Unknown
Mean motion
3.82528 °/min
Orbital period
94.11 mins
BSTAR
0.000037106
Loading maneuver chart data...
Loading SW <> Apogee altitude chart data...
Loading historical data...
Loading historical data...
Loading historical data...
Loading historical data...
Loading historical data...
Loading historical data...
Loading historical data...

STARLINK-32402 Visibility forecast

Observer location: undefined°, undefined°

Span
Click to sort rows by Start time (UTC) header in descending order
Start Az.
Max El. time (UTC)
Max El. Az.
Max El.
End time (UTC)
End Az.
4 mins2025-07-09 23:10:34.411Z168.685° S2025-07-09 23:12:34.411Z127.228° SE19.753°2025-07-09 23:14:34.411Z87.509° E
5 mins2025-07-10 00:48:34.411Z267.998° W2025-07-10 00:50:34.411Z346.405° N34.303°2025-07-10 00:53:34.411Z39.179° NE
4 mins2025-07-10 05:45:34.411Z351.299° N2025-07-10 05:46:34.411Z13.842° NNE21.782°2025-07-10 05:49:34.411Z78.005° E
5 mins2025-07-10 07:23:34.411Z286.442° WNW2025-07-10 07:25:34.411Z198.009° SSW36.669°2025-07-10 07:28:34.411Z148.618° SSE
|